Regional Weather Roundup
Issued by NWS

Home | Current Version | Previous Version | Text Only | Print | Product List | Glossary On
Versions: 1 2 3 4 5 6 7 8 9 10 11 12 13 14 15 16 17 18 19 20 21 22 23 24 25 26 27 28 29 30 31 32 33 34 35 36 37 38 39 40 41 42 43 44 45 46 47 48 49 50
000
ASUS43 KOAX 232110
RWRNE

WEATHER ROUNDUP FOR NEBRASKA
NATIONAL WEATHER SERVICE OMAHA NE
400 PM CDT SAT JUL 23 2016

NOTES: SATELLITE DATA IS BEING USED TO AUGMENT CLOUD COVER ABOVE
       12000 FEET.
       "FAIR" INDICATES FEW OR NO CLOUDS BELOW 12,000 FEET WITH NO
       SIGNIFICANT WEATHER AND/OR OBSTRUCTIONS TO VISIBILITY.

  * THESE STATIONS DO NOT REPORT WEATHER SUCH AS RAIN...SNOW OR FOG.

NEZ001>004-019>022-054>056-232200-
NEBRASKA PANHANDLE

CITY           SKY/WX    TMP DP  RH WIND       PRES   REMARKS
SCOTTSBLUFF    SUNNY     97  48  18 VRB5      29.96F HX  93
ALLIANCE       SUNNY     92  51  24 N14       29.97S
CHADRON        SUNNY     93  51  23 NE10G17   29.92F HX  90
KIMBALL        SUNNY     93  49  21 NE9       30.04F HX  90
SIDNEY         SUNNY     98  42  14 N14G22    30.00F HX  94
$$

NEZ057>060-069>072-079>082-232200-
SOUTHWEST NEBRASKA

CITY           SKY/WX    TMP DP  RH WIND       PRES   REMARKS
NORTH PLATTE   SUNNY     93  70  46 W9        29.87S HX  99
IMPERIAL       SUNNY     95  63  34 VRB6      29.91F HX  96
LEXINGTON      SUNNY     92  71  49 S3        29.85S HX  99
MCCOOK         CLOUDY    93  71  48 SE6       29.86F HX 100
OGALLALA       SUNNY     98  51  20 NW13      29.92S HX  95
$$

NEZ005>010-023>029-035>040-094-232200-
NORTH CENTRAL NEBRASKA

CITY           SKY/WX    TMP DP  RH WIND       PRES   REMARKS
VALENTINE      SUNNY     95  57  27 N18G25    29.85S HX  94
AINSWORTH      SUNNY     93  63  36 NW14      29.84R HX  94
BROKEN BOW     CLOUDY    88  73  61 W12       29.85R HX  95
O`NEILL        CLOUDY    96  67  38 S13       29.78S HX 100
ORD            CLOUDY    90  72  55 S9        29.80S HX  97
THEDFORD       CLOUDY    93  62  35 N17G25    29.89R HX  93
$$

NEZ041-046>049-061>064-073>077-083>087-232200-
SOUTH CENTRAL NEBRASKA

CITY           SKY/WX    TMP DP  RH WIND       PRES   REMARKS
GRAND ISLAND   CLOUDY    96  71  44 S12       29.81F HX 103
AURORA         SUNNY     93  71  47 S9        29.81F HX 100
HASTINGS       CLOUDY    96  69  41 SW7       29.83F HX 102
HEBRON         CLOUDY    93  71  47 S12G18    29.82F HX 100
HOLDREGE       SUNNY     93  67  42 S7        29.85F HX  96
KEARNEY *      SUNNY     93  70  46 SW9       29.85S HX  99
YORK           SUNNY     91  75  59 S12       29.82S HX 102
$$

NEZ011>018-030>034-042>045-232200-
NORTHEAST NEBRASKA

CITY           SKY/WX    TMP DP  RH WIND       PRES   REMARKS
NORFOLK        SUNNY     90  73  57 S13       29.78F HX  98
ALBION         PTSUNNY   89  73  57 S9        29.79F HX  97
BLAIR          SUNNY     90  75  61 S15       29.81S HX 100
FREMONT        SUNNY     92  74  55 SE12G17   29.79F HX 102
TEKAMAH        SUNNY     91  75  59 S14       29.78F HX 101
WAYNE          SUNNY     91  78  66 S14       29.78F HX 104
$$

NEZ050>053-065>068-078-088>093-232200-
SOUTHEAST NEBRASKA

CITY           SKY/WX    TMP DP  RH WIND       PRES   REMARKS
LINCOLN        CLOUDY    90  74  59 S8        29.82F HX  99
OMAHA EPPLEY   MOSUNNY   92  74  55 S15       29.79F HX 101
BEATRICE       CLOUDY    91  73  55 S8        29.83S HX 100
FALLS CITY     CLOUDY    90  75  61 S9        29.84F HX 100
NEBRASKA CITY  CLOUDY    87  78  75 S8        29.83F HX 100
PLATTSMOUTH    PTSUNNY   87  77  72 SE9       29.83F HX  99
$$

NEZ044-045-051>053-067-232200-
OMAHA AREA

CITY           SKY/WX    TMP DP  RH WIND       PRES   REMARKS
OMAHA EPPLEY   MOSUNNY   92  74  55 S15       29.79F HX 101
BLAIR          SUNNY     90  75  61 S15       29.81S HX 100
FREMONT        SUNNY     92  74  55 SE12G17   29.79F HX 102
MILLARD        SUNNY     92  75  59 S9G17     29.80F HX 103
OFFUTT AFB     SUNNY     91  76  61 S12       29.80F HX 103
PLATTSMOUTH    PTSUNNY   87  77  72 SE9       29.83F HX  99
WAHOO          FAIR      92  73  53 S13G18    29.80S HX 100
$$




USA.gov is the U.S. government's official web portal to all federal, state and local government web resources and services.